owner,sensor,date,latitude,longitude,vertical_datum,wind_speed,wind_to_direction,wind_speed_of_gust,qcFlag 
COMPS,ioos:station:USF.COMPS:NFB:1,2015-04-01T00:00:00Z,25.0840,-81.0960,6.0,2.47,106.49,3.03,'1111122,1111122,1111122' 
COMPS,ioos:station:USF.COMPS:NFB:1,2015-04-01T00:06:00Z,25.0840,-81.0960,6.0,1.5,102.1,2.35,'1111122,1111122,1111122' 
COMPS,ioos:station:USF.COMPS:NFB:1,2015-04-01T00:12:00Z,25.0840,-81.0960,6.0,1.34,99.32,2.64,'1111122,1111122,1111122' 
COMPS,ioos:station:USF.COMPS:NFB:1,2015-04-01T00:18:00Z,25.0840,-81.0960,6.0,1.15,107.01,1.86,'1111122,1111122,1111122' 
COMPS,ioos:station:USF.COMPS:NFB:1,2015-04-01T00:24:00Z,25.0840,-81.0960,6.0,1.67,124.42,2.84,'1111122,1111122,1111122' 
COMPS,ioos:station:USF.COMPS:NFB:1,2015-04-01T00:30:00Z,25.0840,-81.0960,6.0,1.72,123.64,3.13,'1111122,1111122,1111122' 
COMPS,ioos:station:USF.COMPS:NFB:1,2015-04-01T00:36:00Z,25.0840,-81.0960,6.0,1.61,124.96,3.03,'1111122,1111122,1111122' 
COMPS,ioos:station:USF.COMPS:NFB:1,2015-04-01T00:42:00Z,25.0840,-81.0960,6.0,1.46,124.57,2.45,'1111122,1111122,1111122' 
COMPS,ioos:station:USF.COMPS:NFB:1,2015-04-01T00:48:00Z,25.0840,-81.0960,6.0,0.81,107.95,1.56,'1111122,1111122,1111122' 
COMPS,ioos:station:USF.COMPS:NFB:1,2015-04-01T00:54:00Z,25.0840,-81.0960,6.0,1.0,103.56,2.74,'1111122,1111122,1111122' 
COMPS,ioos:station:USF.COMPS:NFB:1,2015-04-01T01:00:00Z,25.0840,-81.0960,6.0,1.36,104.17,2.54,'1111122,1111122,1111122' 
COMPS,ioos:station:USF.COMPS:NFB:1,2015-04-01T01:06:00Z,25.0840,-81.0960,6.0,1.63,111.06,2.35,'1111122,1111122,1111122' 
COMPS,ioos:station:USF.COMPS:NFB:1,2015-04-01T01:12:00Z,25.0840,-81.0960,6.0,2.55,121.39,4.8,'1111122,1111122,1111122' 
COMPS,ioos:station:USF.COMPS:NFB:1,2015-04-01T01:18:00Z,25.0840,-81.0960,6.0,3.39,125.02,4.5,'1111122,1111122,1111122' 
COMPS,ioos:station:USF.COMPS:NFB:1,2015-04-01T01:24:00Z,25.0840,-81.0960,6.0,3.04,124.05,3.91,'1111122,1111122,1111122' 
COMPS,ioos:station:USF.COMPS:NFB:1,2015-04-01T01:30:00Z,25.0840,-81.0960,6.0,2.85,123.75,4.11,'1111122,1111122,1111122' 
COMPS,ioos:station:USF.COMPS:NFB:1,2015-04-01T01:36:00Z,25.0840,-81.0960,6.0,2.89,123.52,4.41,'1111122,1111122,1111122' 
COMPS,ioos:station:USF.COMPS:NFB:1,2015-04-01T01:42:00Z,25.0840,-81.0960,6.0,2.9,129.6,3.72,'1111122,1111122,1111122' 
COMPS,ioos:station:USF.COMPS:NFB:1,2015-04-01T01:48:00Z,25.0840,-81.0960,6.0,1.84,119.03,2.84,'1111122,1111122,1111122' 
COMPS,ioos:station:USF.COMPS:NFB:1,2015-04-01T01:54:00Z,25.0840,-81.0960,6.0,1.75,107.39,2.74,'1111122,1111122,1111122' 
COMPS,ioos:station:USF.COMPS:NFB:1,2015-04-01T02:00:00Z,25.0840,-81.0960,6.0,1.62,111.36,3.23,'1111122,1111122,1111122' 
COMPS,ioos:station:USF.COMPS:NFB:1,2015-04-01T02:06:00Z,25.0840,-81.0960,6.0,1.97,115.84,3.62,'1111122,1111122,1111122' 
COMPS,ioos:station:USF.COMPS:NFB:1,2015-04-01T02:12:00Z,25.0840,-81.0960,6.0,1.59,114.18,2.74,'1111122,1111122,1111122' 
COMPS,ioos:station:USF.COMPS:NFB:1,2015-04-01T02:18:00Z,25.0840,-81.0960,6.0,1.54,114.07,3.03,'1111122,1111122,1111122' 
COMPS,ioos:station:USF.COMPS:NFB:1,2015-04-01T02:24:00Z,25.0840,-81.0960,6.0,1.52,114.97,3.13,'1111122,1111122,1111122' 
COMPS,ioos:station:USF.COMPS:NFB:1,2015-04-01T02:30:00Z,25.0840,-81.0960,6.0,1.76,118.26,2.54,'1111122,1111122,1111122' 
COMPS,ioos:station:USF.COMPS:NFB:1,2015-04-01T02:36:00Z,25.0840,-81.0960,6.0,1.3,114.04,2.35,'1111122,1111122,1111122' 
COMPS,ioos:station:USF.COMPS:NFB:1,2015-04-01T02:42:00Z,25.0840,-81.0960,6.0,1.56,107.39,2.15,'1111122,1111122,1111122' 
COMPS,ioos:station:USF.COMPS:NFB:1,2015-04-01T02:48:00Z,25.0840,-81.0960,6.0,1.45,110.08,2.25,'1111122,1111122,1111122' 
COMPS,ioos:station:USF.COMPS:NFB:1,2015-04-01T02:54:00Z,25.0840,-81.0960,6.0,1.48,108.3,2.64,'1111122,1111122,1111122' 
COMPS,ioos:station:USF.COMPS:NFB:1,2015-04-01T03:00:00Z,25.0840,-81.0960,6.0,1.05,111.31,2.35,'1111122,1111122,1111122' 
COMPS,ioos:station:USF.COMPS:NFB:1,2015-04-01T03:06:00Z,25.0840,-81.0960,6.0,0.98,111.5,2.35,'1111122,1111122,1111122' 
COMPS,ioos:station:USF.COMPS:NFB:1,2015-04-01T03:12:00Z,25.0840,-81.0960,6.0,1.37,106.24,2.05,'1111122,1111122,1111122' 
COMPS,ioos:station:USF.COMPS:NFB:1,2015-04-01T03:18:00Z,25.0840,-81.0960,6.0,1.37,113.23,2.35,'1111122,1111122,1111122' 
COMPS,ioos:station:USF.COMPS:NFB:1,2015-04-01T03:24:00Z,25.0840,-81.0960,6.0,1.46,111.52,2.54,'1111122,1111122,1111122' 
COMPS,ioos:station:USF.COMPS:NFB:1,2015-04-01T03:30:00Z,25.0840,-81.0960,6.0,1.26,112.45,2.45,'1111122,1111122,1111122' 
COMPS,ioos:station:USF.COMPS:NFB:1,2015-04-01T03:36:00Z,25.0840,-81.0960,6.0,1.49,120.77,3.03,'1111122,1111122,1111122' 
COMPS,ioos:station:USF.COMPS:NFB:1,2015-04-01T03:42:00Z,25.0840,-81.0960,6.0,0.9,113.39,1.76,'1111122,1111122,1111122' 
COMPS,ioos:station:USF.COMPS:NFB:1,2015-04-01T03:48:00Z,25.0840,-81.0960,6.0,0.91,106.75,1.95,'1111122,1111122,1111122' 
COMPS,ioos:station:USF.COMPS:NFB:1,2015-04-01T03:54:00Z,25.0840,-81.0960,6.0,0.74,113.97,1.46,'1111122,1111122,1111122' 
COMPS,ioos:station:USF.COMPS:NFB:1,2015-04-01T04:00:00Z,25.0840,-81.0960,6.0,0.79,104.73,2.54,'1111122,1111122,1111122' 
COMPS,ioos:station:USF.COMPS:NFB:1,2015-04-01T04:06:00Z,25.0840,-81.0960,6.0,0.53,106.85,1.37,'1111122,1111122,1111122' 
COMPS,ioos:station:USF.COMPS:NFB:1,2015-04-01T04:12:00Z,25.0840,-81.0960,6.0,0.48,108.14,0.97,'1111122,1111122,1111122' 
COMPS,ioos:station:USF.COMPS:NFB:1,2015-04-01T04:18:00Z,25.0840,-81.0960,6.0,0.8,108.96,1.76,'1111122,1111122,1111122' 
COMPS,ioos:station:USF.COMPS:NFB:1,2015-04-01T04:24:00Z,25.0840,-81.0960,6.0,1.0,116.51,2.05,'1111122,1111122,1111122' 
COMPS,ioos:station:USF.COMPS:NFB:1,2015-04-01T04:30:00Z,25.0840,-81.0960,6.0,1.09,118.47,1.95,'1111122,1111122,1111122' 
COMPS,ioos:station:USF.COMPS:NFB:1,2015-04-01T04:36:00Z,25.0840,-81.0960,6.0,1.19,113.12,1.76,'1111122,1111122,1111122' 
COMPS,ioos:station:USF.COMPS:NFB:1,2015-04-01T04:42:00Z,25.0840,-81.0960,6.0,1.34,116.79,2.25,'1111122,1111122,1111122' 
COMPS,ioos:station:USF.COMPS:NFB:1,2015-04-01T04:48:00Z,25.0840,-81.0960,6.0,0.83,105.68,2.15,'1111122,1111122,1111122' 
COMPS,ioos:station:USF.COMPS:NFB:1,2015-04-01T04:54:00Z,25.0840,-81.0960,6.0,0.76,107.28,1.95,'1111122,1111122,1111122' 
COMPS,ioos:station:USF.COMPS:NFB:1,2015-04-01T05:00:00Z,25.0840,-81.0960,6.0,0.32,102.94,0.88,'1111122,1111122,1111122' 
COMPS,ioos:station:USF.COMPS:NFB:1,2015-04-01T05:06:00Z,25.0840,-81.0960,6.0,0.22,102.86,1.07,'1111122,1111122,1111122' 
COMPS,ioos:station:USF.COMPS:NFB:1,2015-04-01T05:12:00Z,25.0840,-81.0960,6.0,0.55,101.66,1.17,'1111122,1111122,1111122' 
COMPS,ioos:station:USF.COMPS:NFB:1,2015-04-01T05:18:00Z,25.0840,-81.0960,6.0,0.66,99.75,1.76,'1111122,1111122,1111122' 
COMPS,ioos:station:USF.COMPS:NFB:1,2015-04-01T05:24:00Z,25.0840,-81.0960,6.0,0.97,98.25,1.76,'1111122,1111122,1111122' 
COMPS,ioos:station:USF.COMPS:NFB:1,2015-04-01T05:30:00Z,25.0840,-81.0960,6.0,0.72,92.05,1.37,'1111122,1111122,1111122' 
COMPS,ioos:station:USF.COMPS:NFB:1,2015-04-01T05:36:00Z,25.0840,-81.0960,6.0,1.17,94.51,1.76,'1111122,1111122,1111122' 
COMPS,ioos:station:USF.COMPS:NFB:1,2015-04-01T05:42:00Z,25.0840,-81.0960,6.0,0.44,86.8,0.88,'1111122,1111122,1111122' 
COMPS,ioos:station:USF.COMPS:NFB:1,2015-04-01T05:48:00Z,25.0840,-81.0960,6.0,0.54,88.38,1.27,'1111122,1111122,1111122' 
COMPS,ioos:station:USF.COMPS:NFB:1,2015-04-01T05:54:00Z,25.0840,-81.0960,6.0,0.55,88.48,1.46,'1111122,1111122,1111122' 
COMPS,ioos:station:USF.COMPS:NFB:1,2015-04-01T06:00:00Z,25.0840,-81.0960,6.0,0.29,87.29,0.78,'1111122,1111122,1111122' 
COMPS,ioos:station:USF.COMPS:NFB:1,2015-04-01T06:06:00Z,25.0840,-81.0960,6.0,0.51,86.92,0.88,'1111122,1111122,1111122' 
COMPS,ioos:station:USF.COMPS:NFB:1,2015-04-01T06:12:00Z,25.0840,-81.0960,6.0,0.33,81.95,0.97,'1111122,1111122,1111122' 
COMPS,ioos:station:USF.COMPS:NFB:1,2015-04-01T06:18:00Z,25.0840,-81.0960,6.0,0.28,87.88,0.78,'1111122,1111122,1111122' 
COMPS,ioos:station:USF.COMPS:NFB:1,2015-04-01T06:24:00Z,25.0840,-81.0960,6.0,0.09,84.51,0.09,'1111122,1111122,1111122' 
COMPS,ioos:station:USF.COMPS:NFB:1,2015-04-01T06:30:00Z,25.0840,-81.0960,6.0,0.09,81.06,0.09,'1111122,1111122,1111122' 
COMPS,ioos:station:USF.COMPS:NFB:1,2015-04-01T06:36:00Z,25.0840,-81.0960,6.0,0.44,82.62,1.07,'1111122,1111122,1111122' 
COMPS,ioos:station:USF.COMPS:NFB:1,2015-04-01T06:42:00Z,25.0840,-81.0960,6.0,0.18,85.66,0.88,'1111122,1111122,1111122' 
COMPS,ioos:station:USF.COMPS:NFB:1,2015-04-01T06:48:00Z,25.0840,-81.0960,6.0,0.51,85.25,0.88,'1111122,1111122,1111122' 
COMPS,ioos:station:USF.COMPS:NFB:1,2015-04-01T06:54:00Z,25.0840,-81.0960,6.0,0.18,85.6,0.68,'1111122,1111122,1111122' 
COMPS,ioos:station:USF.COMPS:NFB:1,2015-04-01T07:00:00Z,25.0840,-81.0960,6.0,0.09,81.89,0.09,'1111122,1111122,1111122' 
COMPS,ioos:station:USF.COMPS:NFB:1,2015-04-01T07:06:00Z,25.0840,-81.0960,6.0,0.57,82.5,1.37,'1111122,1111122,1111122' 
COMPS,ioos:station:USF.COMPS:NFB:1,2015-04-01T07:12:00Z,25.0840,-81.0960,6.0,0.38,84.01,0.88,'1111122,1111122,1111122' 
COMPS,ioos:station:USF.COMPS:NFB:1,2015-04-01T07:18:00Z,25.0840,-81.0960,6.0,0.42,89.89,0.88,'1111122,1111122,1111122' 
COMPS,ioos:station:USF.COMPS:NFB:1,2015-04-01T07:24:00Z,25.0840,-81.0960,6.0,0.29,86.22,0.78,'1111122,1111122,1111122' 
COMPS,ioos:station:USF.COMPS:NFB:1,2015-04-01T07:30:00Z,25.0840,-81.0960,6.0,1.01,86.4,1.46,'1111122,1111122,1111122' 
COMPS,ioos:station:USF.COMPS:NFB:1,2015-04-01T07:36:00Z,25.0840,-81.0960,6.0,0.9,92.28,1.56,'1111122,1111122,1111122' 
COMPS,ioos:station:USF.COMPS:NFB:1,2015-04-01T07:42:00Z,25.0840,-81.0960,6.0,0.3,89.25,0.68,'1111122,1111122,1111122' 
COMPS,ioos:station:USF.COMPS:NFB:1,2015-04-01T07:48:00Z,25.0840,-81.0960,6.0,0.13,86.45,0.39,'1111122,1111122,1111122' 
COMPS,ioos:station:USF.COMPS:NFB:1,2015-04-01T07:54:00Z,25.0840,-81.0960,6.0,1.41,68.35,2.35,'1111122,1111122,1111122' 
COMPS,ioos:station:USF.COMPS:NFB:1,2015-04-01T08:00:00Z,25.0840,-81.0960,6.0,2.01,64.24,2.35,'1111122,1111122,1111122' 
COMPS,ioos:station:USF.COMPS:NFB:1,2015-04-01T08:06:00Z,25.0840,-81.0960,6.0,1.95,63.81,2.25,'1111122,1111122,1111122' 
COMPS,ioos:station:USF.COMPS:NFB:1,2015-04-01T08:12:00Z,25.0840,-81.0960,6.0,2.4,59.9,2.74,'1111122,1111122,1111122' 
COMPS,ioos:station:USF.COMPS:NFB:1,2015-04-01T08:18:00Z,25.0840,-81.0960,6.0,2.77,58.74,3.03,'1111122,1111122,1111122' 
COMPS,ioos:station:USF.COMPS:NFB:1,2015-04-01T08:24:00Z,25.0840,-81.0960,6.0,2.85,59.24,3.13,'1111122,1111122,1111122' 
COMPS,ioos:station:USF.COMPS:NFB:1,2015-04-01T08:30:00Z,25.0840,-81.0960,6.0,2.8,60.34,3.13,'1111122,1111122,1111122' 
COMPS,ioos:station:USF.COMPS:NFB:1,2015-04-01T08:36:00Z,25.0840,-81.0960,6.0,2.69,60.09,3.03,'1111122,1111122,1111122' 
COMPS,ioos:station:USF.COMPS:NFB:1,2015-04-01T08:42:00Z,25.0840,-81.0960,6.0,2.67,57.9,3.13,'1111122,1111122,1111122' 
COMPS,ioos:station:USF.COMPS:NFB:1,2015-04-01T08:48:00Z,25.0840,-81.0960,6.0,2.52,57.86,2.74,'1111122,1111122,1111122' 
COMPS,ioos:station:USF.COMPS:NFB:1,2015-04-01T08:54:00Z,25.0840,-81.0960,6.0,2.59,58.03,2.84,'1111122,1111122,1111122' 
COMPS,ioos:station:USF.COMPS:NFB:1,2015-04-01T09:00:00Z,25.0840,-81.0960,6.0,2.62,57.75,2.93,'1111122,1111122,1111122' 
COMPS,ioos:station:USF.COMPS:NFB:1,2015-04-01T09:06:00Z,25.0840,-81.0960,6.0,2.73,57.11,3.03,'1111122,1111122,1111122' 
COMPS,ioos:station:USF.COMPS:NFB:1,2015-04-01T09:12:00Z,25.0840,-81.0960,6.0,2.89,58.41,3.13,'1111122,1111122,1111122' 
COMPS,ioos:station:USF.COMPS:NFB:1,2015-04-01T09:18:00Z,25.0840,-81.0960,6.0,3.01,57.12,3.33,'1111122,1111122,1111122' 
COMPS,ioos:station:USF.COMPS:NFB:1,2015-04-01T09:24:00Z,25.0840,-81.0960,6.0,2.85,58.48,3.23,'1111122,1111122,1111122' 
COMPS,ioos:station:USF.COMPS:NFB:1,2015-04-01T09:30:00Z,25.0840,-81.0960,6.0,2.95,59.84,3.13,'1111122,1111122,1111122' 
COMPS,ioos:station:USF.COMPS:NFB:1,2015-04-01T09:36:00Z,25.0840,-81.0960,6.0,2.79,59.48,3.03,'1111122,1111122,1111122' 
COMPS,ioos:station:USF.COMPS:NFB:1,2015-04-01T09:42:00Z,25.0840,-81.0960,6.0,2.81,60.29,3.03,'1111122,1111122,1111122' 
COMPS,ioos:station:USF.COMPS:NFB:1,2015-04-01T09:48:00Z,25.0840,-81.0960,6.0,2.7,62.98,3.13,'1111122,1111122,1111122' 
COMPS,ioos:station:USF.COMPS:NFB:1,2015-04-01T09:54:00Z,25.0840,-81.0960,6.0,2.54,63.53,2.74,'1111122,1111122,1111122' 
COMPS,ioos:station:USF.COMPS:NFB:1,2015-04-01T10:00:00Z,25.0840,-81.0960,6.0,2.59,62.81,2.84,'1111122,1111122,1111122' 
COMPS,ioos:station:USF.COMPS:NFB:1,2015-04-01T10:06:00Z,25.0840,-81.0960,6.0,2.68,62.07,2.93,'1111122,1111122,1111122' 
COMPS,ioos:station:USF.COMPS:NFB:1,2015-04-01T10:12:00Z,25.0840,-81.0960,6.0,3.11,60.53,3.52,'1111122,1111122,1111122' 
COMPS,ioos:station:USF.COMPS:NFB:1,2015-04-01T10:18:00Z,25.0840,-81.0960,6.0,3.35,57.92,3.72,'1111122,1111122,1111122' 
COMPS,ioos:station:USF.COMPS:NFB:1,2015-04-01T10:24:00Z,25.0840,-81.0960,6.0,3.78,56.32,4.31,'1111122,1111122,1111122' 
COMPS,ioos:station:USF.COMPS:NFB:1,2015-04-01T10:30:00Z,25.0840,-81.0960,6.0,3.94,56.96,4.41,'1111122,1111122,1111122' 
COMPS,ioos:station:USF.COMPS:NFB:1,2015-04-01T10:36:00Z,25.0840,-81.0960,6.0,3.9,58.29,4.31,'1111122,1111122,1111122' 
COMPS,ioos:station:USF.COMPS:NFB:1,2015-04-01T10:42:00Z,25.0840,-81.0960,6.0,3.79,60.69,4.11,'1111122,1111122,1111122' 
COMPS,ioos:station:USF.COMPS:NFB:1,2015-04-01T10:48:00Z,25.0840,-81.0960,6.0,3.7,61.96,3.91,'1111122,1111122,1111122' 
COMPS,ioos:station:USF.COMPS:NFB:1,2015-04-01T10:54:00Z,25.0840,-81.0960,6.0,3.55,63.61,3.82,'1111122,1111122,1111122' 
COMPS,ioos:station:USF.COMPS:NFB:1,2015-04-01T11:00:00Z,25.0840,-81.0960,6.0,3.37,59.88,3.72,'1111122,1111122,1111122' 
COMPS,ioos:station:USF.COMPS:NFB:1,2015-04-01T11:06:00Z,25.0840,-81.0960,6.0,3.04,60.62,3.23,'1111122,1111122,1111122' 
COMPS,ioos:station:USF.COMPS:NFB:1,2015-04-01T11:12:00Z,25.0840,-81.0960,6.0,3.13,58.35,3.52,'1111122,1111122,1111122' 
COMPS,ioos:station:USF.COMPS:NFB:1,2015-04-01T11:18:00Z,25.0840,-81.0960,6.0,3.26,56.17,3.52,'1111122,1111122,1111122' 
COMPS,ioos:station:USF.COMPS:NFB:1,2015-04-01T11:24:00Z,25.0840,-81.0960,6.0,3.01,57.46,3.33,'1111122,1111122,1111122' 
COMPS,ioos:station:USF.COMPS:NFB:1,2015-04-01T11:30:00Z,25.0840,-81.0960,6.0,3.43,52.77,4.11,'1111122,1111122,1111122' 
COMPS,ioos:station:USF.COMPS:NFB:1,2015-04-01T11:36:00Z,25.0840,-81.0960,6.0,3.79,54.41,4.11,'1111122,1111122,1111122' 
COMPS,ioos:station:USF.COMPS:NFB:1,2015-04-01T11:42:00Z,25.0840,-81.0960,6.0,4.39,48.32,5.09,'1111122,1111122,1111122' 
COMPS,ioos:station:USF.COMPS:NFB:1,2015-04-01T11:48:00Z,25.0840,-81.0960,6.0,4.83,46.18,5.48,'1111122,1111122,1111122' 
COMPS,ioos:station:USF.COMPS:NFB:1,2015-04-01T11:54:00Z,25.0840,-81.0960,6.0,4.99,44.95,5.58,'1111122,1111122,1111122' 
COMPS,ioos:station:USF.COMPS:NFB:1,2015-04-01T12:00:00Z,25.0840,-81.0960,6.0,4.87,44.98,5.29,'1111122,1111122,1111122' 
COMPS,ioos:station:USF.COMPS:NFB:1,2015-04-01T12:06:00Z,25.0840,-81.0960,6.0,4.27,52.03,4.9,'1111122,1111122,1111122' 
COMPS,ioos:station:USF.COMPS:NFB:1,2015-04-01T12:12:00Z,25.0840,-81.0960,6.0,4.74,50.8,5.58,'1111122,1111122,1111122' 
COMPS,ioos:station:USF.COMPS:NFB:1,2015-04-01T12:18:00Z,25.0840,-81.0960,6.0,5.4,42.58,6.07,'1111122,1111122,1111122' 
COMPS,ioos:station:USF.COMPS:NFB:1,2015-04-01T12:24:00Z,25.0840,-81.0960,6.0,5.55,41.0,6.07,'1111122,1111122,1111122' 
COMPS,ioos:station:USF.COMPS:NFB:1,2015-04-01T12:30:00Z,25.0840,-81.0960,6.0,5.66,41.17,6.56,'1111122,1111122,1111122' 
COMPS,ioos:station:USF.COMPS:NFB:1,2015-04-01T12:36:00Z,25.0840,-81.0960,6.0,5.65,41.19,6.27,'1111122,1111122,1111122' 
COMPS,ioos:station:USF.COMPS:NFB:1,2015-04-01T12:42:00Z,25.0840,-81.0960,6.0,5.64,41.24,6.17,'1111122,1111122,1111122' 
COMPS,ioos:station:USF.COMPS:NFB:1,2015-04-01T12:48:00Z,25.0840,-81.0960,6.0,5.36,42.05,5.87,'1111122,1111122,1111122' 
COMPS,ioos:station:USF.COMPS:NFB:1,2015-04-01T12:54:00Z,25.0840,-81.0960,6.0,5.24,47.48,5.87,'1111122,1111122,1111122' 
COMPS,ioos:station:USF.COMPS:NFB:1,2015-04-01T13:00:00Z,25.0840,-81.0960,6.0,5.1,44.79,5.87,'1111122,1111122,1111122' 
COMPS,ioos:station:USF.COMPS:NFB:1,2015-04-01T13:06:00Z,25.0840,-81.0960,6.0,4.78,44.27,5.39,'1111122,1111122,1111122' 
COMPS,ioos:station:USF.COMPS:NFB:1,2015-04-01T13:12:00Z,25.0840,-81.0960,6.0,5.09,44.21,5.68,'1111122,1111122,1111122' 
COMPS,ioos:station:USF.COMPS:NFB:1,2015-04-01T13:18:00Z,25.0840,-81.0960,6.0,4.94,42.8,5.48,'1111122,1111122,1111122' 
COMPS,ioos:station:USF.COMPS:NFB:1,2015-04-01T13:24:00Z,25.0840,-81.0960,6.0,4.76,39.38,5.48,'1111122,1111122,1111122' 
COMPS,ioos:station:USF.COMPS:NFB:1,2015-04-01T13:30:00Z,25.0840,-81.0960,6.0,4.26,40.16,5.39,'1111122,1111122,1111122' 
COMPS,ioos:station:USF.COMPS:NFB:1,2015-04-01T13:36:00Z,25.0840,-81.0960,6.0,4.48,44.23,5.09,'1111122,1111122,1111122' 
COMPS,ioos:station:USF.COMPS:NFB:1,2015-04-01T13:42:00Z,25.0840,-81.0960,6.0,4.32,44.09,4.9,'1111122,1111122,1111122' 
COMPS,ioos:station:USF.COMPS:NFB:1,2015-04-01T13:48:00Z,25.0840,-81.0960,6.0,4.1,44.82,4.6,'1111122,1111122,1111122' 
COMPS,ioos:station:USF.COMPS:NFB:1,2015-04-01T13:54:00Z,25.0840,-81.0960,6.0,4.05,47.25,4.6,'1111122,1111122,1111122' 
COMPS,ioos:station:USF.COMPS:NFB:1,2015-04-01T14:00:00Z,25.0840,-81.0960,6.0,3.93,48.86,4.6,'1111122,1111122,1111122' 
COMPS,ioos:station:USF.COMPS:NFB:1,2015-04-01T14:06:00Z,25.0840,-81.0960,6.0,3.69,48.82,4.41,'1111122,1111122,1111122' 
COMPS,ioos:station:USF.COMPS:NFB:1,2015-04-01T14:12:00Z,25.0840,-81.0960,6.0,3.6,56.72,4.41,'1111122,1111122,1111122' 
COMPS,ioos:station:USF.COMPS:NFB:1,2015-04-01T14:18:00Z,25.0840,-81.0960,6.0,3.5,51.7,3.91,'1111122,1111122,1111122' 
COMPS,ioos:station:USF.COMPS:NFB:1,2015-04-01T14:24:00Z,25.0840,-81.0960,6.0,3.37,50.26,3.82,'1111122,1111122,1111122' 
COMPS,ioos:station:USF.COMPS:NFB:1,2015-04-01T14:30:00Z,25.0840,-81.0960,6.0,3.17,57.0,3.72,'1111122,1111122,1111122' 
COMPS,ioos:station:USF.COMPS:NFB:1,2015-04-01T14:36:00Z,25.0840,-81.0960,6.0,3.16,62.03,3.62,'1111122,1111122,1111122' 
COMPS,ioos:station:USF.COMPS:NFB:1,2015-04-01T14:42:00Z,25.0840,-81.0960,6.0,2.73,66.76,3.13,'1111122,1111122,1111122' 
COMPS,ioos:station:USF.COMPS:NFB:1,2015-04-01T14:48:00Z,25.0840,-81.0960,6.0,2.57,74.76,3.03,'1111122,1111122,1111122' 
COMPS,ioos:station:USF.COMPS:NFB:1,2015-04-01T14:54:00Z,25.0840,-81.0960,6.0,2.64,79.7,3.42,'1111122,1111122,1111122' 
COMPS,ioos:station:USF.COMPS:NFB:1,2015-04-01T15:00:00Z,25.0840,-81.0960,6.0,2.15,78.01,2.64,'1111122,1111122,1111122' 
COMPS,ioos:station:USF.COMPS:NFB:1,2015-04-01T15:06:00Z,25.0840,-81.0960,6.0,2.2,80.36,2.54,'1111122,1111122,1111122' 
COMPS,ioos:station:USF.COMPS:NFB:1,2015-04-01T15:12:00Z,25.0840,-81.0960,6.0,2.24,82.08,2.64,'1111122,1111122,1111122' 
COMPS,ioos:station:USF.COMPS:NFB:1,2015-04-01T15:18:00Z,25.0840,-81.0960,6.0,1.38,80.67,2.15,'1111122,1111122,1111122' 
COMPS,ioos:station:USF.COMPS:NFB:1,2015-04-01T15:24:00Z,25.0840,-81.0960,6.0,1.13,97.48,1.56,'1111122,1111122,1111122' 
COMPS,ioos:station:USF.COMPS:NFB:1,2015-04-01T15:30:00Z,25.0840,-81.0960,6.0,0.71,87.29,1.27,'1111122,1111122,1111122' 
COMPS,ioos:station:USF.COMPS:NFB:1,2015-04-01T15:36:00Z,25.0840,-81.0960,6.0,0.47,87.76,0.97,'1111122,1111122,1111122' 
COMPS,ioos:station:USF.COMPS:NFB:1,2015-04-01T15:42:00Z,25.0840,-81.0960,6.0,0.56,95.26,1.07,'1111122,1111122,1111122' 
COMPS,ioos:station:USF.COMPS:NFB:1,2015-04-01T15:48:00Z,25.0840,-81.0960,6.0,0.72,110.32,1.17,'1111122,1111122,1111122' 
COMPS,ioos:station:USF.COMPS:NFB:1,2015-04-01T15:54:00Z,25.0840,-81.0960,6.0,0.91,126.85,1.76,'1111122,1111122,1111122' 
COMPS,ioos:station:USF.COMPS:NFB:1,2015-04-01T16:00:00Z,25.0840,-81.0960,6.0,0.96,124.86,1.56,'1111122,1111122,1111122' 
COMPS,ioos:station:USF.COMPS:NFB:1,2015-04-01T16:06:00Z,25.0840,-81.0960,6.0,0.97,133.89,1.46,'1111122,1111122,1111122' 
COMPS,ioos:station:USF.COMPS:NFB:1,2015-04-01T16:12:00Z,25.0840,-81.0960,6.0,1.23,139.13,1.86,'1111122,1111122,1111122' 
COMPS,ioos:station:USF.COMPS:NFB:1,2015-04-01T16:18:00Z,25.0840,-81.0960,6.0,1.47,133.49,1.95,'1111122,1111122,1111122' 
COMPS,ioos:station:USF.COMPS:NFB:1,2015-04-01T16:24:00Z,25.0840,-81.0960,6.0,1.59,140.98,2.05,'1111122,1111122,1111122' 
COMPS,ioos:station:USF.COMPS:NFB:1,2015-04-01T16:30:00Z,25.0840,-81.0960,6.0,1.86,145.76,2.25,'1111122,1111122,1111122' 
COMPS,ioos:station:USF.COMPS:NFB:1,2015-04-01T16:36:00Z,25.0840,-81.0960,6.0,2.09,142.1,2.64,'1111122,1111122,1111122' 
COMPS,ioos:station:USF.COMPS:NFB:1,2015-04-01T16:42:00Z,25.0840,-81.0960,6.0,2.34,149.99,3.13,'1111122,1111122,1111122' 
COMPS,ioos:station:USF.COMPS:NFB:1,2015-04-01T16:48:00Z,25.0840,-81.0960,6.0,3.13,147.47,3.62,'1111122,1111122,1111122' 
COMPS,ioos:station:USF.COMPS:NFB:1,2015-04-01T16:54:00Z,25.0840,-81.0960,6.0,3.01,159.45,3.52,'1111122,1111122,1111122' 
COMPS,ioos:station:USF.COMPS:NFB:1,2015-04-01T17:00:00Z,25.0840,-81.0960,6.0,3.31,152.95,3.91,'1111122,1111122,1111122' 
COMPS,ioos:station:USF.COMPS:NFB:1,2015-04-01T17:06:00Z,25.0840,-81.0960,6.0,3.13,151.62,3.62,'1111122,1111122,1111122' 
COMPS,ioos:station:USF.COMPS:NFB:1,2015-04-01T17:12:00Z,25.0840,-81.0960,6.0,2.92,157.94,3.72,'1111122,1111122,1111122' 
COMPS,ioos:station:USF.COMPS:NFB:1,2015-04-01T17:18:00Z,25.0840,-81.0960,6.0,2.88,159.31,3.42,'1111122,1111122,1111122' 
COMPS,ioos:station:USF.COMPS:NFB:1,2015-04-01T17:24:00Z,25.0840,-81.0960,6.0,2.59,157.54,3.03,'1111122,1111122,1111122' 
COMPS,ioos:station:USF.COMPS:NFB:1,2015-04-01T17:30:00Z,25.0840,-81.0960,6.0,2.48,171.68,3.42,'1111122,1111122,1111122' 
COMPS,ioos:station:USF.COMPS:NFB:1,2015-04-01T17:36:00Z,25.0840,-81.0960,6.0,3.39,153.67,4.11,'1111122,1111122,1111122' 
COMPS,ioos:station:USF.COMPS:NFB:1,2015-04-01T17:42:00Z,25.0840,-81.0960,6.0,3.81,158.37,4.31,'1111122,1111122,1111122' 
COMPS,ioos:station:USF.COMPS:NFB:1,2015-04-01T17:48:00Z,25.0840,-81.0960,6.0,3.9,152.57,4.31,'1111122,1111122,1111122' 
COMPS,ioos:station:USF.COMPS:NFB:1,2015-04-01T17:54:00Z,25.0840,-81.0960,6.0,3.58,149.22,4.01,'1111122,1111122,1111122' 
COMPS,ioos:station:USF.COMPS:NFB:1,2015-04-01T18:00:00Z,25.0840,-81.0960,6.0,3.52,154.04,4.21,'1111122,1111122,1111122' 
COMPS,ioos:station:USF.COMPS:NFB:1,2015-04-01T18:06:00Z,25.0840,-81.0960,6.0,3.77,154.18,4.8,'1111122,1111122,1111122' 
COMPS,ioos:station:USF.COMPS:NFB:1,2015-04-01T18:12:00Z,25.0840,-81.0960,6.0,4.33,161.97,4.9,'1111122,1111122,1111122' 
COMPS,ioos:station:USF.COMPS:NFB:1,2015-04-01T18:18:00Z,25.0840,-81.0960,6.0,4.43,163.17,5.09,'1111122,1111122,1111122' 
COMPS,ioos:station:USF.COMPS:NFB:1,2015-04-01T18:24:00Z,25.0840,-81.0960,6.0,4.21,164.25,4.99,'1111122,1111122,1111122' 
COMPS,ioos:station:USF.COMPS:NFB:1,2015-04-01T18:30:00Z,25.0840,-81.0960,6.0,4.22,166.16,5.39,'1111122,1111122,1111122' 
COMPS,ioos:station:USF.COMPS:NFB:1,2015-04-01T18:36:00Z,25.0840,-81.0960,6.0,4.33,169.52,5.09,'1111122,1111122,1111122' 
COMPS,ioos:station:USF.COMPS:NFB:1,2015-04-01T18:42:00Z,25.0840,-81.0960,6.0,3.77,168.96,4.6,'1111122,1111122,1111122' 
COMPS,ioos:station:USF.COMPS:NFB:1,2015-04-01T18:48:00Z,25.0840,-81.0960,6.0,3.93,167.02,4.6,'1111122,1111122,1111122' 
COMPS,ioos:station:USF.COMPS:NFB:1,2015-04-01T18:54:00Z,25.0840,-81.0960,6.0,4.52,165.04,5.48,'1111122,1111122,1111122' 
COMPS,ioos:station:USF.COMPS:NFB:1,2015-04-01T19:00:00Z,25.0840,-81.0960,6.0,4.68,158.68,5.29,'1111122,1111122,1111122' 
COMPS,ioos:station:USF.COMPS:NFB:1,2015-04-01T19:06:00Z,25.0840,-81.0960,6.0,4.87,158.43,5.39,'1111122,1111122,1111122' 
COMPS,ioos:station:USF.COMPS:NFB:1,2015-04-01T19:12:00Z,25.0840,-81.0960,6.0,5.14,161.92,6.27,'1111122,1111122,1111122' 
COMPS,ioos:station:USF.COMPS:NFB:1,2015-04-01T19:18:00Z,25.0840,-81.0960,6.0,4.93,156.39,5.78,'1111122,1111122,1111122' 
COMPS,ioos:station:USF.COMPS:NFB:1,2015-04-01T19:24:00Z,25.0840,-81.0960,6.0,5.21,152.16,5.87,'1111122,1111122,1111122' 
COMPS,ioos:station:USF.COMPS:NFB:1,2015-04-01T19:30:00Z,25.0840,-81.0960,6.0,4.81,158.82,5.58,'1111122,1111122,1111122' 
COMPS,ioos:station:USF.COMPS:NFB:1,2015-04-01T19:36:00Z,25.0840,-81.0960,6.0,5.1,156.72,6.17,'1111122,1111122,1111122' 
COMPS,ioos:station:USF.COMPS:NFB:1,2015-04-01T19:42:00Z,25.0840,-81.0960,6.0,4.95,157.76,5.97,'1111122,1111122,1111122' 